Wind_Gust
5 6 6 7 5 3 4 8 8 6 6 6 7 9 7 5 8 7 7 8 9 6 7 8 8 9 9 9 7 7 8 12 9 9 8 10 10 12 16 15 11 13
5 6 5 4 4 5 5 5 5 7 8 5 5 5 7 5 8 6 8 7 8 8 8 8 8 9 9 9 8 7 8 11 10 12 11 9 10 11 13 13 12 12
5 5 5 5 5 3 5 4 4 5 6 6 5 3 6 6 7 7 7 7 10 11 11 10 10 9 10 10 9 9 9 8 12 9 12 10 9 10 13 12 13 11
4 4 4 5 4 6 7 5 4 6 7 6 5 5 6 8 7 5 7 9 10 10 10 10 11 11 12 12 11 11 10 9 9 8 10 11 10 8 11 11 16 13
4 3 4 5 4 4 5 8 7 4 5 5 5 6 8 9 7 9 7 9 10 11 11 13 13 13 14 14 12 12 11 11 11 10 10 12 10 10 9 11 14 13
5 7 6 6 4 4 8 6 9 7 7 6 6 6 7 6 7 9 7 9 10 12 12 12 14 14 15 16 14 12 11 12 11 12 11 13 11 10 10 11 14 14
5 4 4 5 5 4 6 4 3 5 6 5 4 6 5 8 8 10 8 9 10 11 11 13 13 15 13 18 14 13 13 11 11 11 12 11 10 12 8 10 13 15
5 4 5 4 4 5 4 6 3 4 4 4 6 9 4 7 8 11 8 9 11 13 13 14 14 14 14 17 17 16 14 13 12 12 11 10 9 12 10 10 13 15
5 5 5 4 5 3 5 5 3 4 6 3 5 6 6 6 6 9 10 10 11 12 13 13 14 14 15 17 19 16 15 14 13 11 12 11 12 12 13 13 13 14
6 5 4 4 6 3 3 3 2 3 5 3 4 5 6 5 7 10 10 11 11 12 13 13 15 14 16 16 18 18 16 16 14 11 11 10 10 10 11 13 12 13
6 6 5 5 5 3 3 3 2 4 3 5 6 7 5 5 8 9 9 11 13 12 12 14 14 15 16 17 16 16 18 18 15 11 11 11 12 10 9 11 12 12
7 6 6 7 6 5 4 4 2 4 2 4 4 6 6 6 8 7 10 12 12 12 13 13 14 14 15 15 15 16 16 16 15 12 12 11 13 13 11 9 10 12
8 8 8 7 6 6 5 4 4 2 5 5 3 5 6 7 8 8 8 12 12 12 13 13 13 14 14 15 15 15 16 15 17 14 12 11 12 13 12 12 12 11
9 8 7 7 7 6 4 4 4 3 2 3 3 5 6 8 10 9 8 11 12 12 12 12 12 13 15 14 13 13 14 14 16 14 11 11 12 14 14 13 9 10
8 7 7 7 7 6 5 4 4 3 3 4 3 5 6 7 9 10 10 11 12 12 12 12 12 12 11 12 13 15 13 14 15 14 9 13 12 14 14 16 13 8
9 8 8 8 7 7 6 5 5 3 3 5 5 4 4 9 10 10 10 11 13 12 12 11 11 10 13 15 11 10 11 13 15 13 9 13 12 13 15 16 15 14
10 10 10 10 8 8 6 6 7 4 6 6 6 5 5 7 10 10 9 10 12 11 11 11 9 11 14 14 15 15 12 13 14 12 8 13 13 13 13 14 17 15
12 11 11 10 8 9 9 8 7 6 6 6 6 5 4 6 9 9 10 9 12 12 10 9 8 11 13 14 15 16 13 12 11 11 8 11 10 13 13 14 14 15
12 12 12 11 11 11 10 9 7 7 8 7 7 6 5 6 9 10 10 10 12 12 11 10 7 9 12 14 14 15 16 14 12 12 7 10 10 10 11 12 13 14
13 13 13 13 11 10 9 10 7 9 8 7 7 6 6 6 7 9 9 10 11 13 12 9 9 10 12 14 14 15 16 13 10 10 7 10 9 9 8 9 11 11
15 13 13 13 12 10 10 9 9 8 8 7 8 9 8 8 7 9 8 11 11 13 12 10 9 9 12 14 14 15 17 12 12 12 9 11 10 10 8 9 9 10
16 14 14 12 12 11 10 9 9 11 10 7 6 6 7 7 4 8 10 10 10 10 11 10 8 10 12 14 14 16 15 11 12 12 10 11 13 11 8 9 9 9
15 15 15 14 14 14 13 10 11 10 9 8 8 8 9 7 7 7 10 11 9 8 9 10 10 9 12 13 14 16 12 11 12 11 11 11 12 13 11 11 11 10
15 16 17 17 13 15 12 11 11 9 10 10 12 9 8 8 8 8 7 10 10 7 9 9 8 8 11 12 13 16 12 10 11 11 11 14 10 15 13 14 15 20
15 16 17 18 18 15 13 14 13 14 10 8 10 10 10 8 9 10 7 6 7 8 13 10 9 9 10 11 12 14 13 9 11 11 12 12 12 10 14 11 9 14
16 18 17 18 18 15 14 16 14 12 12 10 10 11 11 8 9 10 9 7 6 8 7 6 7 8 9 9 10 12 13 10 9 13 11 11 11 9 8 8 8 11
Wind_Speed
3 2 1 1 1 0 1 3 1 2 0 1 1 2 2 3 4 5 5 5 5 4 4 3 3 4 5 5 4 3 4 4 4 4 5 5 5 5 6 6 5 5
1 1 1 1 3 3 1 1 2 2 1 0 1 3 3 3 5 4 5 4 4 5 5 5 5 5 5 5 5 4 5 5 5 4 5 5 4 4 5 5 5 5
1 1 1 1 2 2 3 1 1 1 0 1 2 2 4 4 4 4 5 4 6 7 6 5 5 5 6 6 5 5 5 5 6 6 4 4 4 5 4 4 5 5
1 1 1 1 2 0 2 2 2 3 2 2 3 3 3 3 3 4 4 5 6 5 5 5 5 6 6 6 6 6 6 5 5 4 5 5 4 4 4 4 4 6
1 0 0 2 3 2 3 3 3 2 2 3 3 4 4 4 5 5 4 5 5 5 6 6 6 7 6 6 5 6 6 6 6 5 5 4 4 3 3 4 5 6
2 2 2 2 2 1 3 2 0 0 2 3 4 3 4 3 4 4 4 5 5 5 6 6 6 6 6 6 6 5 5 6 7 6 5 4 3 4 3 4 5 6
2 2 2 2 3 1 1 1 1 3 3 1 1 3 3 3 5 4 4 4 5 5 5 6 6 7 6 5 5 6 6 5 6 6 5 3 3 5 4 4 5 6
3 2 2 2 3 2 0 0 2 2 2 2 3 3 2 2 4 3 3 4 5 5 6 6 6 5 5 5 6 6 6 5 6 7 5 4 3 4 5 5 5 6
3 3 2 2 2 1 1 0 1 2 1 1 3 3 3 2 4 4 4 4 5 5 6 6 5 5 5 5 5 5 6 6 6 6 5 5 4 4 5 5 7 6
4 3 3 2 2 1 1 0 1 0 1 1 3 3 2 3 4 5 4 4 5 5 5 4 5 5 5 5 5 5 6 6 6 6 6 5 4 4 5 5 6 7
4 3 4 3 3 2 2 2 1 1 1 1 3 3 3 4 4 4 4 4 5 4 4 4 4 4 5 5 5 4 4 5 5 5 6 6 5 4 4 4 6 5
5 4 4 5 4 3 3 3 1 0 1 0 2 2 3 4 5 3 4 4 3 3 3 3 3 3 4 4 5 5 5 5 4 4 5 5 6 4 4 4 4 5
5 5 5 5 4 4 3 3 2 1 1 1 1 3 3 4 4 4 3 4 3 3 3 3 2 3 3 4 4 5 5 5 5 4 4 4 4 5 4 3 3 4
5 4 4 5 4 4 3 3 3 2 1 1 1 3 4 5 5 5 3 3 3 3 2 2 3 3 4 4 3 4 4 4 4 4 4 4 4 4 4 5 4 3
5 4 4 4 4 4 3 3 3 2 1 1 2 2 3 4 5 5 5 3 2 3 3 3 4 4 3 3 4 4 3 4 3 3 3 4 4 4 4 4 4 4
5 5 5 5 4 4 4 4 4 2 2 3 3 3 3 5 5 4 4 3 3 2 2 3 3 3 5 7 5 2 2 2 2 3 3 3 4 5 5 5 4 4
5 6 6 6 5 5 4 4 4 3 3 4 4 3 4 4 6 4 3 2 2 2 3 3 2 2 7 5 5 4 1 1 1 2 3 3 4 4 4 4 4 5
6 5 5 5 4 5 5 5 4 3 4 4 4 4 3 4 6 5 4 3 2 2 2 2 2 5 6 6 6 5 3 0 0 1 3 3 3 4 3 4 4 5
5 6 5 4 4 4 5 4 4 4 4 3 4 3 3 4 5 6 4 3 3 3 2 2 2 6 7 7 7 7 6 2 1 3 4 3 3 3 4 4 4 5
7 6 5 4 4 4 4 4 4 5 5 4 4 3 4 3 5 6 4 3 3 3 1 1 2 6 8 8 8 7 6 3 4 6 4 3 3 3 3 4 4 3
7 6 5 6 6 6 5 5 5 4 4 4 4 4 4 4 4 5 4 4 3 2 1 1 2 5 7 8 8 7 6 5 7 6 5 3 3 3 3 3 3 3
8 7 7 8 7 6 5 5 4 5 6 4 3 4 3 3 2 4 5 4 3 2 2 1 2 5 6 8 7 7 6 5 6 6 5 3 2 2 3 2 1 2
9 9 9 9 8 6 6 5 4 4 4 3 4 3 4 4 4 4 5 5 4 2 2 0 2 4 6 7 7 6 5 5 6 5 4 3 2 2 2 2 2 1
9 10 10 10 7 7 7 6 5 4 5 3 5 4 4 4 4 4 4 4 5 4 3 2 1 3 5 6 6 5 4 5 5 6 4 3 0 1 2 3 4 7
9 10 10 10 9 8 8 8 6 8 5 3 4 4 4 2 3 4 3 3 4 4 5 3 0 2 4 5 6 5 4 4 6 5 4 1 1 2 3 3 3 5
9 11 10 11 10 8 8 8 7 3 4 4 2 2 3 2 2 2 3 2 3 3 3 2 1 1 2 5 5 5 5 4 4 6 4 2 1 0 2 3 4 4
Wind_Direction
98 88 81 27 336 142 101 75 98 126 207 263 308 306 285 276 303 323 308 311 304 317 329 334 344 359 2 3 1 355 3 352 342 347 359 19 24 18 23 9 9 8
41 87 79 27 351 348 313 180 182 165 171 304 314 307 316 328 309 321 320 319 331 352 2 12 16 10 6 3 352 357 3 359 349 348 3 24 21 28 26 11 6 -0
82 53 48 39 346 326 301 351 228 197 30 343 313 353 330 329 331 340 334 24 40 33 23 22 24 19 18 15 4 357 359 358 355 342 11 29 26 37 20 10 7 8
143 146 161 54 71 75 19 58 10 355 346 3 329 303 339 331 351 2 9 35 52 43 29 28 19 22 18 15 15 12 358 354 348 352 24 26 26 39 17 5 7 12
218 89 82 53 49 52 64 65 30 349 338 303 315 336 8 344 3 29 28 38 47 39 31 26 21 19 12 14 12 15 4 357 353 357 25 32 10 30 9 18 8 8
124 175 123 91 60 90 78 50 180 56 358 348 336 336 356 334 29 40 41 51 44 41 32 25 23 13 12 8 9 16 2 3 354 6 21 32 15 14 16 22 17 10
144 131 89 71 60 35 76 42 340 14 352 301 338 2 358 359 50 59 58 59 55 43 38 30 20 13 4 6 16 8 4 0 -0 11 19 10 33 24 10 22 19 14
135 146 128 85 83 59 45 11 353 346 326 354 26 314 18 12 74 68 65 65 62 46 39 30 19 11 3 9 17 8 3 359 -0 8 10 5 21 32 13 10 25 22
153 164 138 121 108 83 90 349 330 342 11 354 351 332 338 42 96 87 75 71 66 56 42 29 18 6 359 10 14 12 4 359 360 6 13 14 24 18 14 12 28 21
169 190 155 174 158 198 164 258 286 302 54 46 18 359 359 22 90 99 88 72 70 58 50 37 19 7 2 7 7 6 8 3 3 8 17 22 37 43 24 22 32 24
187 180 171 189 198 213 232 263 282 285 305 54 49 16 0 75 93 92 85 74 71 62 53 41 23 9 9 6 5 4 5 10 12 16 23 27 28 44 43 30 37 30
192 171 170 178 197 207 227 236 202 217 208 33 104 45 40 90 110 89 96 92 84 77 71 53 28 19 20 7 1 3 7 13 17 24 31 30 27 24 31 30 37 26
194 191 187 187 196 210 228 240 222 169 156 127 130 102 81 103 106 101 95 99 93 84 66 60 43 25 16 11 14 14 6 8 15 20 28 35 30 17 15 24 38 31
196 197 194 194 199 211 218 217 214 178 198 156 116 88 86 120 127 120 113 101 98 85 69 55 47 31 11 6 22 21 10 1 11 20 19 30 27 23 20 19 7 11
191 193 194 191 190 196 193 196 188 199 207 168 143 103 95 119 132 128 122 103 80 72 52 36 35 17 11 354 356 12 19 359 356 14 15 35 28 21 20 13 13 4
189 189 189 194 187 193 204 198 204 186 144 142 134 130 116 119 132 127 123 127 107 67 53 48 23 351 358 354 341 348 10 334 345 24 10 37 36 18 14 9 4 7
188 193 186 191 195 197 204 203 220 184 163 161 149 141 124 119 129 130 129 128 120 98 63 44 11 349 353 329 328 335 28 13 15 24 31 24 41 35 15 358 358 359
189 187 190 199 194 203 198 198 203 175 183 170 145 139 144 114 125 142 142 140 111 87 61 18 353 357 344 337 335 348 20 35 291 91 64 25 32 33 18 7 2 1
181 186 196 207 212 210 206 198 195 183 189 172 174 186 137 127 136 140 144 138 122 106 59 6 339 346 346 342 342 352 4 87 63 109 81 44 28 30 24 14 5 7
182 184 189 210 222 226 215 208 195 193 190 190 171 165 148 154 131 142 145 141 140 125 90 332 348 350 343 344 343 356 355 52 89 101 88 65 45 37 33 21 4 15
179 175 188 208 207 209 213 211 204 198 190 194 175 173 169 173 155 142 155 150 146 146 136 15 335 347 339 346 348 359 19 86 101 97 90 73 45 41 51 32 359 4
175 179 192 208 210 203 200 208 206 192 191 200 175 184 197 171 107 125 146 156 163 155 118 31 321 344 346 347 354 2 46 91 102 101 98 86 54 33 42 24 350 8
177 176 190 209 206 197 192 195 197 207 217 202 167 185 186 185 174 162 159 158 163 173 140 48 311 344 357 351 354 6 78 97 106 105 102 95 66 19 14 357 314 39
178 177 187 202 193 189 184 191 194 188 216 195 171 181 194 198 164 149 163 162 162 177 181 141 324 333 13 358 -0 26 87 116 123 117 113 113 71 353 354 357 333 4
179 180 187 194 191 183 176 184 199 187 200 171 173 168 192 171 162 148 159 156 163 163 183 150 233 339 14 2 12 46 86 106 121 123 125 157 73 358 333 339 328 336
180 183 188 190 191 180 180 183 173 186 186 159 169 187 181 162 172 160 148 157 152 150 151 158 163 346 9 9 17 50 95 115 126 124 138 173 211 316 18 352 345 345